Hourly Weather Asfi

Today, 1 October, Thursday

Time Temperature Precipitation Wind Pressure Humidity
00:00 +30°C° 0 mm 1 mps 739 mmHg 26%
01:00 +30°C° 0 mm 1 mps 739 mmHg 26%
02:00 +30°C° 0 mm 2 mps 738 mmHg 26%
03:00 +29°C° 0 mm 3 mps 738 mmHg 26%
04:00 +29°C° 0 mm 3 mps 737 mmHg 26%
05:00 +29°C° 0 mm 4 mps 737 mmHg 27%
06:00 +29°C° 0 mm 4 mps 737 mmHg 27%
07:00 +29°C° 0 mm 4 mps 737 mmHg 27%
08:00 +30°C° 0 mm 4 mps 737 mmHg 24%
09:00 +33°C° 0 mm 4 mps 737 mmHg 21%
10:00 +35°C° 0 mm 5 mps 737 mmHg 18%
11:00 +37°C° 0 mm 5 mps 737 mmHg 16%
12:00 +40°C° 0 mm 5 mps 737 mmHg 15%
13:00 +41°C° 0 mm 6 mps 737 mmHg 13%
14:00 +41°C° 0 mm 5 mps 736 mmHg 13%
15:00 +41°C° 0 mm 5 mps 736 mmHg 13%
16:00 +41°C° 0 mm 5 mps 735 mmHg 12%
17:00 +39°C° 0 mm 3 mps 735 mmHg 14%
18:00 +37°C° 0 mm 2 mps 735 mmHg 16%
19:00 +35°C° 0 mm 1 mps 736 mmHg 17%
20:00 +35°C° 0 mm 2 mps 736 mmHg 17%
21:00 +35°C° 0 mm 2 mps 736 mmHg 17%
22:00 +35°C° 0 mm 3 mps 736 mmHg 17%
23:00 +34°C° 0 mm 2 mps 736 mmHg 20%

Tomorrow, 2 October, Friday

Time Temperature Precipitation Wind Pressure Humidity
00:00 +31°C° 0 mm 2 mps 736 mmHg 22%
01:00 +30°C° 0 mm 2 mps 736 mmHg 25%
02:00 +30°C° 0 mm 2 mps 736 mmHg 26%
03:00 +30°C° 0 mm 2 mps 735 mmHg 27%
04:00 +29°C° 0 mm 2 mps 735 mmHg 28%
05:00 +29°C° 0 mm 3 mps 735 mmHg 28%
06:00 +29°C° 0 mm 4 mps 735 mmHg 28%
07:00 +29°C° 0 mm 5 mps 735 mmHg 28%
08:00 +32°C° 0 mm 5 mps 735 mmHg 24%
09:00 +34°C° 0 mm 5 mps 735 mmHg 19%
10:00 +36°C° 0 mm 6 mps 736 mmHg 15%
11:00 +38°C° 0.1 mm 6 mps 735 mmHg 14%
12:00 +40°C° 0.1 mm 6 mps 735 mmHg 13%
13:00 +41°C° 0.1 mm 6 mps 735 mmHg 12%
14:00 +41°C° 0 mm 6 mps 734 mmHg 12%
15:00 +41°C° 0 mm 7 mps 734 mmHg 11%
16:00 +43°C° 0 mm 8 mps 734 mmHg 11%
17:00 +41°C° 0 mm 7 mps 734 mmHg 12%
18:00 +39°C° 0 mm 6 mps 734 mmHg 13%
19:00 +38°C° 0 mm 6 mps 734 mmHg 14%
20:00 +37°C° 0 mm 5 mps 734 mmHg 14%
21:00 +36°C° 0 mm 5 mps 734 mmHg 15%
22:00 +35°C° 0 mm 5 mps 735 mmHg 15%
23:00 +35°C° 0 mm 5 mps 734 mmHg 15%

Day after tomorrow, 3 October, Saturday

Time Temperature Precipitation Wind Pressure Humidity
00:00 +35°C° 0 mm 6 mps 734 mmHg 16%
01:00 +34°C° 0 mm 6 mps 734 mmHg 16%
02:00 +34°C° 0 mm 7 mps 734 mmHg 16%
03:00 +34°C° 0 mm 7 mps 734 mmHg 17%
04:00 +33°C° 0 mm 8 mps 734 mmHg 17%
05:00 +33°C° 0 mm 8 mps 733 mmHg 17%
06:00 +33°C° 0 mm 8 mps 733 mmHg 16%
07:00 +32°C° 0 mm 8 mps 733 mmHg 16%
08:00 +34°C° 0 mm 8 mps 734 mmHg 14%
09:00 +37°C° 0 mm 9 mps 734 mmHg 12%
10:00 +39°C° 0 mm 9 mps 734 mmHg 10%
11:00 +42°C° 0 mm 9 mps 734 mmHg 9%
12:00 +44°C° 0 mm 8 mps 734 mmHg 8%
13:00 +46°C° 0 mm 8 mps 734 mmHg 7%
14:00 +45°C° 0 mm 8 mps 734 mmHg 8%
15:00 +44°C° 0 mm 8 mps 734 mmHg 9%
16:00 +44°C° 0 mm 7 mps 733 mmHg 10%
17:00 +41°C° 0 mm 7 mps 734 mmHg 13%
18:00 +39°C° 0 mm 6 mps 734 mmHg 16%
19:00 +35°C° 0 mm 6 mps 734 mmHg 19%
20:00 +34°C° 0 mm 6 mps 735 mmHg 23%
21:00 +33°C° 0 mm 6 mps 736 mmHg 26%
22:00 +32°C° 0 mm 6 mps 736 mmHg 29%
23:00 +30°C° 0 mm 7 mps 737 mmHg 30%

4 October, Sunday

Time Temperature Precipitation Wind Pressure Humidity
00:00 +29°C° 0 mm 7 mps 737 mmHg 31%
01:00 +28°C° 0 mm 7 mps 737 mmHg 32%
02:00 +28°C° 0 mm 6 mps 737 mmHg 33%
03:00 +27°C° 0 mm 5 mps 737 mmHg 34%
04:00 +27°C° 0 mm 4 mps 737 mmHg 35%
05:00 +27°C° 0 mm 5 mps 737 mmHg 42%
06:00 +26°C° 0 mm 5 mps 737 mmHg 49%
07:00 +26°C° 0 mm 6 mps 737 mmHg 56%
08:00 +28°C° 0 mm 6 mps 737 mmHg 51%
09:00 +29°C° 0 mm 6 mps 737 mmHg 46%
10:00 +32°C° 0 mm 7 mps 738 mmHg 41%
11:00 +35°C° 0 mm 6 mps 737 mmHg 33%
12:00 +37°C° 0 mm 5 mps 737 mmHg 24%
13:00 +41°C° 0 mm 4 mps 737 mmHg 15%
14:00 +40°C° 0 mm 5 mps 736 mmHg 16%
15:00 +40°C° 0 mm 5 mps 736 mmHg 18%
16:00 +40°C° 0 mm 6 mps 736 mmHg 19%
17:00 +37°C° 0 mm 5 mps 736 mmHg 21%
18:00 +35°C° 0 mm 5 mps 736 mmHg 23%
19:00 +34°C° 0 mm 4 mps 737 mmHg 25%
20:00 +33°C° 0 mm 4 mps 737 mmHg 30%
21:00 +32°C° 0 mm 4 mps 738 mmHg 35%
22:00 +30°C° 0 mm 4 mps 738 mmHg 40%
23:00 +29°C° 0 mm 3 mps 738 mmHg 45%

5 October, Monday

Time Temperature Precipitation Wind Pressure Humidity
00:00 +29°C° 0 mm 3 mps 738 mmHg 51%
01:00 +28°C° 0 mm 2 mps 738 mmHg 56%
02:00 +28°C° 0 mm 2 mps 738 mmHg 57%
03:00 +27°C° 0 mm 1 mps 738 mmHg 58%
04:00 +25°C° 0 mm 0 mps 737 mmHg 59%
05:00 +25°C° 0 mm 0 mps 738 mmHg 59%
06:00 +25°C° 0 mm 0 mps 738 mmHg 59%
07:00 +25°C° 0 mm 0 mps 738 mmHg 58%
08:00 +26°C° 0 mm 0 mps 738 mmHg 51%
09:00 +27°C° 0 mm 0 mps 739 mmHg 45%
10:00 +29°C° 0 mm 0 mps 739 mmHg 38%
11:00 +32°C° 0 mm 1 mps 738 mmHg 31%
12:00 +35°C° 0 mm 2 mps 738 mmHg 25%
13:00 +37°C° 0 mm 3 mps 738 mmHg 18%
14:00 +37°C° 0 mm 4 mps 737 mmHg 17%
15:00 +37°C° 0 mm 5 mps 737 mmHg 17%
16:00 +38°C° 0 mm 6 mps 737 mmHg 16%
17:00 +36°C° 0 mm 6 mps 737 mmHg 18%
18:00 +34°C° 0 mm 7 mps 738 mmHg 20%
19:00 +33°C° 0 mm 7 mps 738 mmHg 21%
20:00 +30°C° 0 mm 7 mps 739 mmHg 22%
21:00 +29°C° 0 mm 6 mps 739 mmHg 22%
22:00 +28°C° 0 mm 6 mps 740 mmHg 22%
23:00 +28°C° 0 mm 5 mps 740 mmHg 24%

6 October, Tuesday

Time Temperature Precipitation Wind Pressure Humidity
00:00 +27°C° 0 mm 5 mps 740 mmHg 25%
01:00 +26°C° 0 mm 5 mps 740 mmHg 27%
02:00 +25°C° 0 mm 4 mps 740 mmHg 29%
03:00 +25°C° 0 mm 3 mps 740 mmHg 31%
04:00 +24°C° 0 mm 2 mps 740 mmHg 33%
05:00 +24°C° 0 mm 2 mps 740 mmHg 36%
06:00 +24°C° 0 mm 2 mps 740 mmHg 38%
07:00 +23°C° 0 mm 2 mps 741 mmHg 41%
08:00 +24°C° 0 mm 2 mps 741 mmHg 45%
09:00 +25°C° 0 mm 2 mps 741 mmHg 50%
10:00 +26°C° 0 mm 3 mps 742 mmHg 55%
11:00 +27°C° 0 mm 3 mps 741 mmHg 49%
12:00 +28°C° 0 mm 2 mps 741 mmHg 44%
13:00 +29°C° 0 mm 2 mps 741 mmHg 38%
14:00 +29°C° 0 mm 4 mps 741 mmHg 40%
15:00 +29°C° 0 mm 5 mps 741 mmHg 42%
16:00 +29°C° 0 mm 6 mps 740 mmHg 44%
17:00 +27°C° 0 mm 7 mps 741 mmHg 48%
18:00 +26°C° 0 mm 7 mps 741 mmHg 52%
19:00 +24°C° 0 mm 8 mps 741 mmHg 56%
20:00 +23°C° 0 mm 7 mps 742 mmHg 57%
21:00 +23°C° 0 mm 7 mps 742 mmHg 59%
22:00 +23°C° 0 mm 7 mps 742 mmHg 60%
23:00 +22°C° 0 mm 6 mps 742 mmHg 61%
Show more

We Need Your Consent

Meteoprog and our Service Providers may store and access personal data such as cookies, device identifiers or other similar technologies on your device and process such data to personalise content and ads, as well as provide social media features and to analyse the traffic.

  • Store and/or access information on your device

    Cookies, device identifiers or other information can be stored or accessed on your device for the purposes indicated above.

  • Personalised ads and content, ad and content measurement, audience insights, and products development

    Ads and content can be personalised based on a profile. More data can be added to better personalise ads and content. Ad and content performance can be measured. Insights about the audience who saw the ads and content can be derived. Such data can be used to develop or improve user’s experience, systems and software.

By clicking ‘I Agree’ you will allow the use of indicated cookies, device identifiers, web beacons or other similar technologies. Your settings can be changed in the browser on your device.

For certain purposes, legitimate interests may be relied on, rather than consent. You can read more about this in our Privacy and Cookie Policy.